Weather History for Lee's Summit, MO

Change the Weather History Date:

Tuesday, November 6, 2012

  Actual Average (KMKC) Record (KMKC)
Temperature  
Mean Temperature 49 °F -  
Max Temperature 57 °F 55 °F 75 °F (1999)
Min Temperature 41 °F 39 °F 28 °F (2003)
Degree Days  
Heating Degree Days 16    
Moisture  
Dew Point 36 °F    
Average Humidity 69    
Maximum Humidity 93    
Minimum Humidity 37    
Precipitation  
Precipitation 0.00 in - - ()
Sea Level Pressure  
Sea Level Pressure 30.05 in    
Wind  
Wind Speed 5 mph (West)    
Max Wind Speed 24 mph    
Max Gust Speed 37 mph    
Visibility 9 miles    
Events      
Averages and records for this station are not official NWS values.
T = Trace of Precipitation, MM = Missing Value Source: NWS Daily Summary

Daily Weather History Graph

Daily Weather History Graph

Search for Another Location

Airport:

Trip Planner

Search our weather history database for the weather conditions in past years. The results will help you decide how hot, cold, wet, or windy it might be!

Date:

Astronomy

Nov. 06, 2012 Rise Set
Actual Time 6:50 AM CST 5:10 PM CST
Civil Twilight 6:22 AM CST 5:38 PM CST
Nautical Twilight 5:51 AM CST 6:10 PM CST
Astronomical Twilight 5:19 AM CST 6:41 PM CST
Moon 11:50 PM CST (11/6) 12:43 PM CST (11/6)
Length of Visible Light 11h 16m
Length of Day
10h 20m
Waning Gibbous, 53% of the Moon is Illuminated
Nov 6
Waning Gibbous
Nov 6
Last Quarter
Nov 13
New
Nov 20
First Quarter
Nov 28
Full

Hourly Weather History & Observations

Time (CST) Temp. Windchill Dew Point Humidity Pressure Visibility Wind Dir Wind Speed Gust Speed Precip Events Conditions
12:04 AM 41.0 °F - 37.4 °F 87% 30.09 in 9.0 mi Calm Calm - N/A   Overcast
12:15 AM 41.0 °F - 37.4 °F 87% 30.09 in 9.0 mi Calm Calm - N/A   Overcast
12:40 AM 41.0 °F - 37.4 °F 87% 30.10 in 9.0 mi Calm Calm - N/A   Overcast
12:53 AM 41.0 °F - 37.9 °F 89% 30.11 in 8.0 mi Calm Calm - N/A   Overcast
1:26 AM 41.0 °F - 37.4 °F 87% 30.07 in 8.0 mi Calm Calm - N/A   Overcast
1:33 AM 41.0 °F - 37.4 °F 87% 30.08 in 8.0 mi Calm Calm - N/A   Overcast
1:53 AM 41.0 °F - 39.0 °F 93% 30.10 in 7.0 mi Calm Calm - N/A   Overcast
2:53 AM 41.0 °F - 37.9 °F 89% 30.09 in 9.0 mi Calm Calm - N/A   Overcast
3:22 AM 41.0 °F - 37.4 °F 87% 30.05 in 8.0 mi Calm Calm - N/A   Overcast
3:53 AM 42.1 °F 40.2 °F 37.9 °F 85% 30.09 in 7.0 mi West 3.5 mph - N/A   Overcast
4:12 AM 41.0 °F - 39.2 °F 93% 30.05 in 6.0 mi Calm Calm - N/A   Overcast
4:29 AM 42.8 °F 40.1 °F 39.2 °F 87% 30.04 in 6.0 mi SSW 4.6 mph - N/A   Overcast
4:53 AM 42.1 °F 37.7 °F 39.0 °F 89% 30.06 in 5.0 mi SSW 6.9 mph - N/A   Overcast
6:53 AM 42.1 °F 36.6 °F 37.0 °F 82% 30.05 in 8.0 mi WSW 9.2 mph - N/A   Overcast
7:53 AM 42.1 °F 36.6 °F 37.0 °F 82% 30.06 in 9.0 mi SW 9.2 mph - N/A   Overcast
8:32 AM 42.8 °F 37.0 °F 37.4 °F 81% 30.03 in 9.0 mi WSW 10.4 mph - N/A   Overcast
8:53 AM 44.1 °F 38.6 °F 39.0 °F 82% 30.04 in 10.0 mi SW 10.4 mph - N/A   Mostly Cloudy
9:53 AM 48.0 °F - 39.0 °F 71% 30.05 in 10.0 mi WSW 10.4 mph - N/A   Partly Cloudy
10:26 AM 51.8 °F - 39.2 °F 62% 30.03 in 10.0 mi West 8.1 mph - N/A   Mostly Cloudy
10:53 AM 51.1 °F - 39.0 °F 63% 30.03 in 10.0 mi West 13.8 mph 21.9 mph N/A   Mostly Cloudy
11:11 AM 51.8 °F - 39.2 °F 62% 30.01 in 10.0 mi West 15.0 mph 20.7 mph N/A   Partly Cloudy
11:53 AM 55.0 °F - 39.9 °F 57% 30.02 in 10.0 mi WNW 12.7 mph 21.9 mph N/A   Clear
12:53 PM 55.9 °F - 37.9 °F 51% 29.99 in 10.0 mi WNW 15.0 mph 23.0 mph N/A   Clear
1:53 PM 57.9 °F - 34.0 °F 41% 29.99 in 10.0 mi NW 24.2 mph 36.8 mph N/A   Clear
2:53 PM 57.9 °F - 32.0 °F 37% 29.99 in 10.0 mi NW 16.1 mph 26.5 mph N/A   Partly Cloudy
3:53 PM 57.0 °F - 30.9 °F 37% 30.01 in 10.0 mi NW 17.3 mph 25.3 mph N/A   Partly Cloudy
4:53 PM 55.0 °F - 30.0 °F 38% 30.01 in 10.0 mi NW 9.2 mph - N/A   Clear
5:53 PM 51.1 °F - 30.0 °F 44% 30.03 in 10.0 mi NW 5.8 mph - N/A   Clear
6:53 PM 48.9 °F - 28.9 °F 46% 30.05 in 10.0 mi WNW 6.9 mph - N/A   Clear
7:53 PM 48.0 °F - 28.9 °F 48% 30.06 in 10.0 mi WNW 6.9 mph - N/A   Clear
8:53 PM 48.0 °F - 28.9 °F 48% 30.07 in 10.0 mi West 4.6 mph - N/A   Clear
9:53 PM 44.1 °F 41.5 °F 28.9 °F 55% 30.07 in 10.0 mi WSW 4.6 mph - N/A   Clear
10:53 PM 44.1 °F 40.8 °F 28.9 °F 55% 30.07 in 10.0 mi West 5.8 mph - N/A   Clear
11:53 PM 44.1 °F 39.5 °F 30.0 °F 58% 30.07 in 10.0 mi WNW 8.1 mph - N/A   Clear